Weather History for Vero Beach, FL

Change the Weather History Date:

Saturday, December 29, 2012

  Actual Average Record
Temperature  
Mean Temperature 70 °F 63 °F  
Max Temperature 85 °F 73 °F 85 °F (2012)
Min Temperature 54 °F 53 °F 28 °F (2010)
Degree Days  
Heating Degree Days 0 5  
Month to date heating degree days 49 96  
Since 1 July heating degree days 101 126  
Cooling Degree Days 5 2  
Month to date cooling degree days 117 88  
Year to date cooling degree days 3536 3399  
Growing Degree Days 18 (Base 50)    
Moisture  
Dew Point 67 °F    
Average Humidity 78    
Maximum Humidity 93    
Minimum Humidity 63    
Precipitation  
Precipitation 0.00 in 0.07 in 2.10 in (1978)
Month to date precipitation 3.51 2.05  
Year to date precipitation 49.90 51.73  
Sea Level Pressure  
Sea Level Pressure 29.97 in    
Wind  
Wind Speed 13 mph (SW)    
Max Wind Speed 23 mph    
Max Gust Speed 32 mph    
Visibility 10 miles    
Events      
T = Trace of Precipitation, MM = Missing Value Source: NWS Daily Summary

Daily Weather History Graph

Daily Weather History Graph

Search for Another Location

Airport:

Trip Planner

Search our weather history database for the weather conditions in past years. The results will help you decide how hot, cold, wet, or windy it might be!

Date:

Astronomy

Dec. 29, 2012 Rise Set
Actual Time 7:11 AM EST 5:36 PM EST
Civil Twilight 6:45 AM EST 6:02 PM EST
Nautical Twilight 6:16 AM EST 6:31 PM EST
Astronomical Twilight 5:48 AM EST 6:59 PM EST
Moon 6:59 PM EST (12/29) 7:51 AM EST (12/29)
Length of Visible Light 11h 16m
Length of Day
10h 24m
Full, 98% of the Moon is Illuminated
Dec 29
Full
Jan 4
Last Quarter
Jan 11
New
Jan 18
First Quarter
Jan 26
Full

Hourly Weather History & Observations

Time (EST) Temp. Heat Index Dew Point Humidity Pressure Visibility Wind Dir Wind Speed Gust Speed Precip Events Conditions
12:53 AM 71.1 °F - 69.1 °F 93% 29.96 in 10.0 mi South 6.9 mph - N/A   Overcast
1:53 AM 71.1 °F - 69.1 °F 93% 29.94 in 10.0 mi South 9.2 mph - N/A   Overcast
2:53 AM 72.0 °F - 69.1 °F 91% 29.92 in 10.0 mi South 11.5 mph - N/A   Partly Cloudy
3:53 AM 71.1 °F - 69.1 °F 93% 29.92 in 10.0 mi South 10.4 mph - N/A   Mostly Cloudy
4:53 AM 71.1 °F - 69.1 °F 93% 29.91 in 10.0 mi South 9.2 mph - N/A   Clear
5:27 AM 71.6 °F - 69.8 °F 94% 29.92 in 10.0 mi SSW 11.5 mph - N/A   Mostly Cloudy
5:51 AM 71.6 °F - 69.8 °F 94% 29.94 in 10.0 mi SSW 11.5 mph - N/A   Mostly Cloudy
5:53 AM 71.1 °F - 69.1 °F 93% 29.94 in 10.0 mi SSW 11.5 mph - N/A   Mostly Cloudy
6:02 AM 71.6 °F - 69.8 °F 94% 29.95 in 10.0 mi SSW 10.4 mph - N/A   Scattered Clouds
6:11 AM 71.6 °F - 69.8 °F 94% 29.96 in 10.0 mi SW 11.5 mph - N/A   Mostly Cloudy
6:28 AM 71.6 °F - 69.8 °F 94% 29.97 in 10.0 mi SSW 10.4 mph - N/A   Overcast
6:53 AM 72.0 °F - 70.0 °F 93% 29.97 in 10.0 mi SSW 10.4 mph - N/A   Mostly Cloudy
7:38 AM 73.4 °F - 69.8 °F 88% 29.98 in 10.0 mi SSW 15.0 mph 21.9 mph N/A   Overcast
7:53 AM 73.0 °F - 70.0 °F 90% 29.98 in 10.0 mi SSW 15.0 mph 23.0 mph N/A   Overcast
8:53 AM 73.0 °F - 70.0 °F 90% 30.00 in 9.0 mi SSW 13.8 mph 21.9 mph N/A   Overcast
9:53 AM 73.0 °F - 71.1 °F 93% 30.01 in 10.0 mi SW 12.7 mph - N/A   Overcast
10:53 AM 75.9 °F - 72.0 °F 87% 30.00 in 10.0 mi SW 15.0 mph 25.3 mph N/A   Overcast
11:04 AM 77.0 °F - 71.6 °F 83% 30.00 in 10.0 mi SW 17.3 mph 24.2 mph N/A   Overcast
11:53 AM 80.1 °F 83.8 °F 72.0 °F 76% 29.96 in 10.0 mi SW 17.3 mph 23.0 mph N/A   Overcast
12:00 PM 80.6 °F 84.6 °F 71.6 °F 74% 29.96 in 10.0 mi SSW 16.1 mph 26.5 mph N/A   Overcast
12:51 PM 80.6 °F 84.6 °F 71.6 °F 74% 29.93 in 10.0 mi SW 12.7 mph - N/A   Mostly Cloudy
12:53 PM 80.1 °F 83.6 °F 71.1 °F 74% 29.93 in 10.0 mi WSW 12.7 mph - N/A   Mostly Cloudy
1:53 PM 82.0 °F 84.9 °F 68.0 °F 62% 29.91 in 10.0 mi WSW 18.4 mph 27.6 mph N/A   Mostly Cloudy
2:53 PM 82.0 °F 84.9 °F 68.0 °F 62% 29.90 in 10.0 mi WSW 23.0 mph 29.9 mph N/A   Mostly Cloudy
3:53 PM 79.0 °F - 70.0 °F 74% 29.91 in 10.0 mi WNW 12.7 mph - N/A   Mostly Cloudy
4:53 PM 78.1 °F - 68.0 °F 71% 29.92 in 10.0 mi WSW 13.8 mph - N/A   Clear
6:53 PM 70.0 °F - 61.0 °F 73% 29.99 in 10.0 mi WNW 15.0 mph - N/A   Clear
7:53 PM 66.0 °F - 57.0 °F 73% 30.02 in 10.0 mi WNW 10.4 mph - N/A   Clear
8:53 PM 63.0 °F - 53.1 °F 70% 30.06 in 10.0 mi West 13.8 mph - N/A   Clear
9:53 PM 59.0 °F - 48.9 °F 69% 30.08 in 10.0 mi WNW 15.0 mph 21.9 mph N/A   Clear
10:53 PM 55.0 °F - 46.9 °F 74% 30.11 in 10.0 mi WNW 13.8 mph - N/A   Clear
11:53 PM 54.0 °F - 46.0 °F 75% 30.13 in 10.0 mi WNW 15.0 mph - N/A   Clear